Location: Mactaquac Provincial Park
(45.9573°N, 66.8897°W)
Time: 11:53:24
(UTC-03:00)

Cosmos 1867 - Visible Passes

Search period start: 20 April 2018 00:00
Search period end: 30 April 2018 00:00
Orbit: 776 x 800 km, 65.0° (Epoch: 20 April)

Date Brightness Start Highest point End Pass type
(mag) Time Alt. Az. Time Alt. Az. Time Alt. Az.
20 Apr 6.3 01:05:51 10° NNW 01:08:59 15° NNE 01:12:06 10° ENE visible
20 Apr 4.5 02:48:39 10° NNW 02:53:57 47° NE 02:57:06 23° ESE visible
20 Apr 4.2 04:32:33 10° NW 04:37:23 33° WSW 04:37:35 33° WSW visible
20 Apr 6.2 21:00:50 10° W 21:05:00 22° NNW 21:09:10 10° NNE visible
20 Apr 6.7 22:49:54 10° NNW 22:50:47 10° N 22:51:39 10° N visible
21 Apr 6.3 00:34:20 10° N 00:36:58 13° NNE 00:39:35 10° NE visible
21 Apr 4.9 02:17:04 10° NNW 02:22:10 37° NE 02:24:34 25° E visible
21 Apr 4.0 04:00:41 10° NW 04:05:07 41° W 04:05:07 41° W visible
21 Apr 6.5 22:17:11 10° NNW 22:18:42 11° NNW 22:20:14 10° N visible
22 Apr 6.4 00:02:52 10° N 00:04:55 12° NNE 00:06:58 10° NE visible
22 Apr 5.2 01:45:30 10° NNW 01:50:21 30° NE 01:52:39 22° E visible
22 Apr 3.9 03:28:54 10° NW 03:33:14 49° WNW 03:33:14 49° WNW visible
22 Apr 6.4 21:44:31 10° NW 21:46:38 12° NNW 21:48:45 10° N visible
22 Apr 6.4 23:31:24 10° N 23:32:51 11° N 23:34:18 10° NNE visible
23 Apr 5.5 01:13:57 10° NNW 01:18:29 25° NE 01:21:01 18° ENE visible
23 Apr 3.8 02:57:10 10° NW 03:01:37 58° NW 03:01:37 58° NW visible
23 Apr 6.3 21:11:55 10° NW 21:14:35 14° NNW 21:17:16 10° N visible
23 Apr 6.5 22:59:58 10° N 23:00:46 10° N 23:01:33 10° NNE visible
24 Apr 5.7 00:42:25 10° NNW 00:46:34 21° NNE 00:49:34 14° ENE visible
24 Apr 3.8 02:25:29 10° NW 02:30:12 65° NNW 02:30:12 65° NNW visible
24 Apr 5.7 04:10:29 10° WNW 04:10:48 11° WNW 04:10:48 11° WNW visible
25 Apr 5.9 00:10:55 10° NNW 00:14:37 18° NNE 00:18:15 10° ENE visible
25 Apr 3.9 01:53:51 10° NNW 01:58:53 61° NNE 01:58:53 61° NNE visible
25 Apr 5.5 03:38:14 10° WNW 03:39:30 15° WNW 03:39:30 15° WNW visible
25 Apr 6.1 23:39:24 10° NNW 23:42:39 16° NNE 23:45:53 10° ENE visible
26 Apr 4.2 01:22:14 10° NNW 01:27:35 50° NE 01:27:39 49° NE visible
26 Apr 5.3 03:06:13 10° NW 03:08:17 20° WNW 03:08:17 20° WNW visible
26 Apr 6.5 21:23:44 10° NNW 21:24:27 10° N 21:25:12 10° N visible
26 Apr 6.1 23:07:55 10° N 23:10:38 14° NNE 23:13:21 10° NE visible
27 Apr 4.6 00:50:39 10° NNW 00:55:48 39° NE 00:56:30 38° ENE visible
27 Apr 4.9 02:34:19 10° NW 02:37:08 27° WNW 02:37:08 27° WNW visible
27 Apr 6.1 22:36:25 10° N 22:38:36 12° NNE 22:40:46 10° NE visible
28 Apr 4.9 00:19:04 10° NNW 00:23:58 32° NE 00:25:24 28° ENE visible
28 Apr 4.5 02:02:31 10° NW 02:06:03 38° WNW 02:06:03 38° WNW visible
28 Apr 6.2 22:04:57 10° N 22:06:32 11° NNE 22:08:07 10° NNE visible
28 Apr 5.3 23:47:32 10° NNW 23:52:07 26° NE 23:54:21 20° ENE visible
29 Apr 4.1 01:30:47 10° NW 01:35:00 53° WNW 01:35:00 53° WNW visible
29 Apr 6.3 21:33:31 10° N 21:34:27 10° N 21:35:23 10° NNE visible
29 Apr 5.5 23:16:00 10° NNW 23:20:13 22° NNE 23:23:20 14° ENE visible
